TimeEDT,TemperatureF,Dew PointF,Humidity,Sea Level PressureIn,VisibilityMPH,Wind Direction,Wind SpeedMPH,Gust SpeedMPH,PrecipitationIn,Events,Conditions,WindDirDegrees,DateUTC
12:15 AM,76.1,63.5,65,29.95,10.0,East,5.8,-,N/A,,Overcast,100,2014-08-11 04:15:00
12:35 AM,76.1,63.7,65,29.96,7.0,SSE,4.6,-,N/A,,Overcast,160,2014-08-11 04:35:00
12:55 AM,73.8,65.3,75,29.96,7.0,SSE,11.5,-,0.01,Rain,Light Rain,160,2014-08-11 04:55:00
1:15 AM,71.4,67.5,87,29.96,4.0,South,6.9,-,0.04,Rain,Light Rain,170,2014-08-11 05:15:00
1:35 AM,70.3,68.4,93,29.96,5.0,South,5.8,-,0.06,Rain,Light Rain,170,2014-08-11 05:35:00
1:55 AM,69.8,68.2,95,29.96,5.0,SE,3.5,-,0.10,Rain,Light Rain,130,2014-08-11 05:55:00
2:15 AM,69.8,68.2,95,29.95,5.0,SE,4.6,-,0.04,Rain,Rain,140,2014-08-11 06:15:00
2:35 AM,69.4,68.0,95,29.94,3.0,SSE,3.5,-,0.12,Rain,Rain,150,2014-08-11 06:35:00
2:55 AM,69.4,68.2,96,29.93,3.0,East,3.5,-,0.19,Rain,Rain,80,2014-08-11 06:55:00
3:15 AM,69.3,68.2,96,29.93,7.0,Calm,Calm,-,0.02,Rain,Light Rain,0,2014-08-11 07:15:00
3:35 AM,69.3,68.2,96,29.92,7.0,East,3.5,-,0.03,Rain,Light Rain,100,2014-08-11 07:35:00
4:15 AM,69.3,68.2,96,29.91,7.0,East,4.6,-,0.02,Rain,Light Rain,100,2014-08-11 08:15:00
4:35 AM,69.6,68.5,96,29.90,5.0,ESE,3.5,-,0.02,,Overcast,120,2014-08-11 08:35:00
4:55 AM,69.8,68.9,97,29.89,5.0,ESE,6.9,-,0.02,,Mostly Cloudy,120,2014-08-11 08:55:00
5:15 AM,69.8,68.9,97,29.89,7.0,ESE,5.8,-,N/A,,Mostly Cloudy,120,2014-08-11 09:15:00
5:35 AM,69.8,68.9,97,29.89,4.0,SE,4.6,-,N/A,,Overcast,130,2014-08-11 09:35:00
5:55 AM,69.8,68.9,97,29.89,4.0,SE,4.6,-,N/A,,Overcast,130,2014-08-11 09:55:00
6:15 AM,69.8,68.9,97,29.89,4.0,SE,4.6,-,N/A,,Overcast,140,2014-08-11 10:15:00
6:35 AM,70.0,69.1,97,29.89,4.0,Calm,Calm,-,0.01,,Overcast,0,2014-08-11 10:35:00
6:55 AM,70.0,69.1,97,29.89,3.0,Calm,Calm,-,0.01,,Overcast,0,2014-08-11 10:55:00
7:15 AM,69.8,68.9,97,29.89,2.5,Calm,Calm,-,N/A,,Overcast,0,2014-08-11 11:15:00
7:35 AM,69.8,68.9,97,29.89,2.5,SSW,3.5,-,N/A,,Overcast,200,2014-08-11 11:35:00
7:55 AM,70.0,69.1,97,29.88,3.0,South,3.5,-,N/A,,Overcast,190,2014-08-11 11:55:00
8:15 AM,70.3,69.4,97,29.88,3.0,SSW,4.6,-,N/A,,Overcast,200,2014-08-11 12:15:00
8:35 AM,70.7,69.8,97,29.87,3.0,SW,8.1,-,N/A,,Overcast,220,2014-08-11 12:35:00
8:55 AM,70.9,70.0,97,29.88,3.0,SW,6.9,-,N/A,,Overcast,220,2014-08-11 12:55:00
9:15 AM,71.4,70.0,95,29.87,4.0,SSW,6.9,-,N/A,,Overcast,200,2014-08-11 13:15:00
9:35 AM,72.0,69.8,93,29.87,4.0,SW,8.1,-,N/A,,Overcast,220,2014-08-11 13:35:00
9:55 AM,72.3,69.3,90,29.86,4.0,WSW,6.9,-,N/A,,Overcast,240,2014-08-11 13:55:00
10:35 AM,72.9,69.4,89,29.85,4.0,SW,6.9,-,N/A,,Overcast,220,2014-08-11 14:35:00
10:55 AM,73.4,69.4,87,29.85,7.0,WSW,6.9,-,N/A,,Overcast,250,2014-08-11 14:55:00
11:15 AM,74.5,69.4,84,29.85,5.0,SW,8.1,-,N/A,,Haze,230,2014-08-11 15:15:00
11:35 AM,74.3,69.6,85,29.84,4.0,SW,6.9,-,N/A,,Overcast,220,2014-08-11 15:35:00
11:55 AM,74.7,70.3,86,29.84,7.0,WSW,8.1,-,N/A,,Overcast,240,2014-08-11 15:55:00
12:15 PM,75.6,69.3,81,29.84,7.0,WSW,10.4,-,N/A,,Mostly Cloudy,250,2014-08-11 16:15:00
12:35 PM,75.7,68.9,79,29.84,10.0,WSW,11.5,-,N/A,,Mostly Cloudy,240,2014-08-11 16:35:00
12:55 PM,75.9,68.4,77,29.83,10.0,WSW,11.5,18.4,N/A,,Overcast,250,2014-08-11 16:55:00
1:15 PM,76.6,68.9,77,29.82,7.0,WSW,15.0,19.6,N/A,,Overcast,240,2014-08-11 17:15:00
1:35 PM,76.1,68.7,78,29.84,10.0,North,10.4,-,N/A,,Overcast,350,2014-08-11 17:35:00
1:55 PM,75.9,67.8,76,29.84,7.0,NNW,12.7,18.4,N/A,,Overcast,340,2014-08-11 17:55:00
2:15 PM,75.6,67.5,76,29.84,10.0,North,9.2,16.1,N/A,,Overcast,350,2014-08-11 18:15:00
2:35 PM,74.5,67.3,78,29.84,7.0,NNW,5.8,-,N/A,,Overcast,330,2014-08-11 18:35:00
2:55 PM,73.6,67.1,80,29.84,7.0,NNW,5.8,-,N/A,,Overcast,330,2014-08-11 18:55:00
3:15 PM,75.4,67.1,75,29.83,10.0,NNW,6.9,-,N/A,,Overcast,340,2014-08-11 19:15:00
3:35 PM,76.3,67.1,73,29.82,7.0,NNW,8.1,-,N/A,,Scattered Clouds,330,2014-08-11 19:35:00
4:35 PM,73.6,66.0,77,29.82,7.0,Calm,Calm,-,N/A,Rain,Light Rain,0,2014-08-11 20:35:00
4:55 PM,72.9,66.9,82,29.83,7.0,WNW,4.6,-,N/A,,Scattered Clouds,290,2014-08-11 20:55:00
5:15 PM,75.7,66.9,74,29.81,10.0,NW,6.9,-,N/A,,Scattered Clouds,320,2014-08-11 21:15:00
6:15 PM,76.5,65.8,70,29.82,10.0,West,4.6,-,N/A,,Scattered Clouds,270,2014-08-11 22:15:00
6:55 PM,77.0,67.1,71,29.81,5.0,West,5.8,-,N/A,,Haze,280,2014-08-11 22:55:00
7:35 PM,75.7,66.2,72,29.80,10.0,NW,4.6,-,N/A,,Scattered Clouds,310,2014-08-11 23:35:00
7:55 PM,75.2,65.5,72,29.80,10.0,WNW,6.9,-,N/A,,Clear,300,2014-08-11 23:55:00
8:15 PM,73.9,65.3,74,29.81,10.0,WNW,4.6,-,N/A,,Clear,290,2014-08-12 00:15:00
8:35 PM,72.1,65.3,79,29.82,7.0,WNW,4.6,-,N/A,,Clear,290,2014-08-12 00:35:00
8:55 PM,70.5,65.3,83,29.82,10.0,West,4.6,-,N/A,,Clear,280,2014-08-12 00:55:00
9:15 PM,68.9,65.5,89,29.82,7.0,West,3.5,-,N/A,,Clear,280,2014-08-12 01:15:00
9:35 PM,68.0,65.8,93,29.82,7.0,Calm,Calm,-,N/A,,Clear,0,2014-08-12 01:35:00
9:55 PM,67.5,65.7,94,29.82,7.0,West,3.5,-,N/A,,Clear,270,2014-08-12 01:55:00